Flag for Australia Weather past 2 weeks in Sydney, New South Wales, Australia

Now
64 °F

Light rain. Broken clouds.


Feels Like: 64 °F
Forecast: 64 / 72 °F
Wind: 18 mph from Southeast

Location: Sydney Airport

Current Time: Jan 28, 2015 at 10:02:13 AM

Latest Report: Jan 28, 2015 at 9:00 AM


Visibility: 4 mi

Pressure: 29.92 "Hg

Humidity: 88%

Dew point: 61 °F

Location of SydneyLocation

Historic Weather in Sydney — Graph

°F

Sydney temperature yesterday

Maximum temperature yesterday: 68 °F (at 12:00 AM)
Minimum temperature yesterday: 64 °F (at 10:00 PM)
Average temperature yesterday: 67 °F

Past Weeks' High & Low Weather Summary

 TemperatureHumidityPressure
High95 °F (Jan 17, 2:00 PM)100% (Jan 27, 4:00 AM)30.01 "Hg (Jan 27, 4:00 AM)
Low63 °F (Jan 28, 6:00 AM)15% (Jan 17, 2:00 PM)29.45 "Hg (Jan 14, 3:30 AM)
Average76 °F69%29.78 "Hg
* Reported Jan 13 9:00 AM — Jan 28 9:00 AM, Sydney, Weather by CustomWeather, © 2014

Note: Actual official high and low records may vary slightly from our data, if they occured in-between our weather recording intervals... More about our weather records

Advertising

Sydney weather history for previous 24 hours

 ConditionsComfort  
Time TempWeatherWind HumidityBarometerVisibility
9:00 AM
Jan 28
64 °FLight rain. Broken clouds.18 mph88%29.92 "Hg4 mi
8:00 AM66 °FSprinkles. Broken clouds.18 mph88%29.89 "Hg6 mi
7:30 AM64 °FSprinkles. Broken clouds.16 mph94%29.89 "Hg4 mi
7:00 AM64 °FLots of rain. Broken clouds.13 mph94%29.86 "Hg2 mi
6:30 AM63 °FSprinkles. Broken clouds.10 mph94%29.86 "Hg4 mi
6:00 AM63 °FSprinkles. Partly cloudy.6 mph94%29.86 "Hg4 mi
5:30 AM64 °FLots of rain. Passing clouds.14 mph94%29.86 "Hg2 mi
5:00 AM64 °FSprinkles. Passing clouds.13 mph94%29.86 "Hg4 mi
4:56 AM64 °FRain showers. Partly cloudy.14 mph94%29.86 "Hg3 mi
4:30 AM66 °FScattered showers. Passing clouds.16 mph83%29.86 "HgN/A
4:00 AM66 °FLight rain. Passing clouds.16 mph88%29.86 "HgN/A
3:30 AM68 °FLight rain. Mostly cloudy.16 mph78%29.86 "HgN/A
3:00 AM68 °FLight rain. Mostly cloudy.13 mph83%29.86 "HgN/A
2:30 AM66 °FLight rain. Partly cloudy.13 mph88%29.86 "HgN/A
2:00 AM66 °FLight rain. Partly cloudy.13 mph88%29.86 "HgN/A
1:30 AM66 °FLight rain. Partly cloudy.12 mph94%29.89 "HgN/A
1:00 AM64 °FRain. Partly cloudy.6 mph94%29.89 "Hg5 mi
12:00 AM66 °FLight rain. Partly cloudy.12 mph94%29.89 "HgN/A
11:30 PM
Jan 27
66 °FRain. Partly cloudy.8 mph94%29.92 "Hg5 mi
11:00 PM64 °FLight rain. Partly cloudy.10 mph94%29.89 "HgN/A
10:00 PM64 °FSprinkles. Partly cloudy.9 mph94%29.92 "Hg4 mi
9:30 PM66 °FRain showers. Partly cloudy.12 mph94%29.89 "Hg3 mi
9:00 PM66 °FScattered showers. Partly cloudy.6 mph88%29.89 "HgN/A
8:30 PM66 °FScattered showers. Passing clouds.5 mph94%29.89 "HgN/A
8:00 PM66 °FSprinkles. Partly sunny.7 mph94%29.89 "Hg5 mi
7:30 PM66 °FSprinkles. Partly sunny.7 mph94%29.89 "Hg4 mi
7:00 PM66 °FSprinkles. Broken clouds.8 mph94%29.89 "HgN/A
6:30 PM66 °FSprinkles. Partly sunny.6 mph94%29.86 "Hg6 mi
6:00 PM66 °FRain showers. Partly sunny.6 mph94%29.86 "Hg4 mi
5:30 PM68 °FSprinkles. Broken clouds.8 mph88%29.86 "HgN/A
5:00 PM68 °FSprinkles. Broken clouds.12 mph88%29.89 "HgN/A
4:30 PM68 °FSprinkles. Broken clouds.13 mph88%29.89 "HgN/A
4:00 PM68 °FSprinkles. Broken clouds.12 mph88%29.89 "Hg6 mi
3:30 PM66 °FSprinkles. Broken clouds.13 mph94%29.89 "Hg6 mi
3:00 PM66 °FRain showers. Partly sunny.13 mph94%29.89 "Hg3 mi
2:55 PM66 °FRain showers. Broken clouds.12 mph94%29.89 "Hg3 mi
2:00 PM68 °FLight rain. Broken clouds.8 mph88%29.92 "HgN/A
1:30 PM68 °FLight rain. Broken clouds.10 mph88%29.92 "HgN/A
1:00 PM68 °FLight rain. Broken clouds.10 mph88%29.92 "HgN/A
12:30 PM68 °FLight rain. Broken clouds.9 mph88%29.92 "Hg6 mi
12:00 PM68 °FRain showers. Partly sunny.10 mph88%29.92 "Hg4 mi
11:30 AM68 °FSprinkles. Broken clouds.8 mph88%29.92 "Hg5 mi
11:00 AM68 °FSprinkles. Broken clouds.12 mph88%29.92 "Hg4 mi
10:30 AM66 °FLight rain. Broken clouds.10 mph94%29.92 "Hg4 mi
10:00 AM66 °FSprinkles. Partly sunny.13 mph94%29.92 "Hg4 mi
Weather by CustomWeather, © 2014

See weather overviewHow to use our weather pages